#timestamp,LO_Frequency,Hit,StdDev 
1578427215.5,286047002.3,N
1578427235.3,286047001.6,N
1578427255.2,286047004.2,Y
1578427275.9,286047002.3,P
1578427295.7,286046998.3,N
1578427315.6,286047002.1,N
1578427335.4,286047002.1,N
1578427355.3,286047000.9,N
1578427375.1,286046998.6,N
1578427376.0,286046998.6,N
1578427395.8,286047002.5,N
1578427415.7,286047002.4,N
1578427435.5,286047002.3,N
1578427455.3,286047001.2,N
1578427475.2,286046998.1,N
1578427495.0,286047001.1,N
1578427495.9,286047001.1,N
1578427515.8,286046999.6,N
1578427535.6,286047001.0,N
1578427555.4,286046997.1,N
1578427575.3,286046997.9,N
1578427595.1,286046997.4,N
1578427615.9,286046999.2,N
1578427635.7,286046999.4,N
1578427655.5,286046997.2,N
1578427675.4,286046997.8,N
1578427695.2,286046997.6,N
1578427715.0,286046996.9,N
1578427715.9,286046996.9,N
1578427735.8,286046996.5,N
1578427755.6,286046998.6,N
1578427775.5,286046996.7,N
1578427795.3,286046999.6,N
1578427815.1,286046998.6,N
1578427835.9,286046998.2,N
1578427855.7,286047001.2,N
1578427875.6,286046999.3,N
1578427895.4,286046999.9,N
1578427915.2,286047000.6,N
1578427935.1,286047000.0,N
1578427936.0,286047000.0,N
1578427955.8,286047002.4,N
1578427975.6,286047004.0,N
1578427995.5,286047004.3,N
1578428015.3,286047002.4,N
1578428035.2,286046999.9,N
1578428055.9,286047002.7,N
1578428075.7,286047002.3,N
1578428095.6,286047002.5,N
1578428115.4,286047001.1,N
1578428135.3,286046999.0,N
1578428155.1,286047001.2,N
1578428156.0,286047001.2,N
1578428175.8,286047000.8,N
1578428195.7,286047000.0,N
1578428215.5,286047002.4,N
1578428235.3,286046998.1,N
1578428255.2,286046998.2,N
1578428275.0,286046999.8,N
1578428275.9,286046999.8,N
1578428295.8,286046998.2,N
1578428315.6,286047002.5,N
1578428335.4,286047004.4,N
1578428355.3,286047002.0,N
1578428375.1,286047004.0,N
1578428395.9,286047002.4,N
1578428415.7,286047000.7,N
1578428435.5,286046998.3,N
1578428455.4,286046998.5,N
1578428475.2,286046998.6,N
1578428495.0,286046998.7,N
1578428495.9,286046998.7,N
1578428515.8,286046998.4,N
1578428535.6,286047000.2,N
1578428555.5,286047000.5,N
1578428575.3,286046998.5,N
1578428595.1,286047001.1,N
1578428615.9,286046999.8,N
1578428635.7,286046998.3,N
1578428655.5,286046998.2,N
1578428675.4,286047001.0,N
1578428695.2,286047000.7,N
1578428715.1,286047000.6,N
1578428716.0,286047000.6,N
1578428735.8,286047000.7,N
1578428755.6,286047001.4,N
1578428775.5,286047001.4,N
1578428795.3,286047002.3,N
1578428815.2,286047001.5,N
1578428835.9,286047001.3,N
1578428855.7,286047002.0,N
1578428875.6,286047001.5,N
1578428895.4,286047001.7,N
1578428915.3,286047002.1,N
1578428935.1,286047000.8,N
1578428936.0,286047000.8,N
1578428955.8,286046998.2,N
1578428975.7,286046997.6,N
1578428995.5,286046995.2,Y
1578429015.4,286046995.4,P
1578429035.2,286046997.2,N
1578429055.0,286046995.2,N
1578429055.9,286046995.2,N
1578429075.8,286046997.7,N
1578429095.6,286046998.0,N
1578429115.4,286046997.3,N
1578429135.3,286046998.7,N
1578429155.1,286046997.6,N
1578429175.9,286046998.3,N
1578429195.7,286046998.2,N
1578429215.5,286046998.1,N
1578429235.4,286047000.9,N
1578429255.2,286046999.2,N
1578429275.1,286046999.8,N
1578429276.0,286046999.8,N
1578429295.8,286047002.6,N
1578429315.6,286047002.0,N
1578429335.5,286047000.3,N
1578429355.3,286046999.8,N
1578429375.2,286047000.0,N
1578429395.9,286047000.7,N
1578429415.7,286046998.2,N
1578429435.6,286047000.7,N
1578429455.4,286047000.8,N
1578429475.2,286047001.0,N
1578429495.1,286047000.7,N
1578429496.0,286047000.7,N
1578429515.8,286047002.7,N
1578429535.7,286047000.6,N
1578429555.5,286047000.0,N
1578429575.3,286047000.3,N
1578429595.2,286047002.3,N
1578429615.0,286047000.1,N
1578429615.9,286047000.1,N
1578429635.8,286046999.7,N
1578429655.6,286046999.8,N
1578429675.4,286047001.0,N
1578429695.3,286046998.1,N
1578429715.1,286046999.2,N
1578429735.8,286046997.2,N
1578429755.7,286046999.6,N
1578429775.5,286047000.9,N
1578429795.4,286047001.9,N
1578429815.2,286047000.0,N
1578429835.0,286047000.3,N
1578429835.9,286047000.3,N
1578429855.8,286046999.8,N
1578429875.6,286047002.8,N
1578429895.4,286047000.2,N
1578429915.3,286047003.9,Y
1578429935.1,286047001.4,P
1578429955.9,286047003.9,P
1578429975.7,286047002.0,N
1578429995.5,286047002.7,N
1578430015.4,286047001.1,N
1578430035.2,286046998.4,N
1578430055.1,286047000.8,N
1578430056.0,286047000.8,N
1578430075.8,286047002.4,N
1578430095.6,286046998.2,N
1578430115.5,286046999.4,N
1578430135.3,286046996.6,N
1578430155.2,286046998.1,N
1578430175.9,286047001.2,N
1578430195.7,286046998.7,N
1578430215.6,286046999.1,N
1578430235.4,286046996.7,N
1578430255.3,286046996.6,N
1578430275.1,286046999.4,N
1578430276.0,286046999.4,N
1578430295.8,286046998.2,N
1578430315.7,286046998.4,N
1578430335.5,286046996.7,N
1578430355.3,286046997.6,N
1578430375.2,286046997.8,N
1578430395.0,286046997.7,N
1578430395.9,286046997.7,N
1578430415.8,286046999.5,N
1578430435.6,286046999.6,N
1578430455.4,286046997.0,N
1578430475.3,286046997.3,N
1578430495.1,286046995.4,N
1578430515.9,286046994.9,N
1578430535.7,286046995.3,N
1578430555.5,286046995.5,N
1578430575.4,286046995.8,N
1578430595.2,286046996.0,N
1578430615.1,286046993.6,Y
1578430616.0,286046993.6,P
1578430635.8,286046995.5,N
1578430655.6,286046996.2,N
1578430675.5,286046993.6,Y
1578430695.3,286046999.6,P
1578430715.1,286046997.6,N
1578430735.9,286046993.3,P
1578430755.7,286046995.9,N
1578430775.6,286046997.6,N
1578430795.4,286046997.7,N
